Tracking 28792 objects as of 25-Apr-2024
HD Live streaming from Space Station
objects crossing your sky now

STARLINK-31502

Track STARLINK-31502 now!
10-day predictions
STARLINK-31502 is classified as:


NORAD ID: 59301
Int'l Code: 2024-056F
Perigee: 426.2 km
Apogee: 428.0 km
Inclination: 43.0 °
Period: 93.0 minutes
Semi major axis: 6798 km
RCS: Unknown
Launch date: March 24, 2024
Source: United States (US)
Launch site: AIR FORCE EASTERN TEST RANGE (AFETR)
Your satellite tracking list
Your tracking list is empty




NASA's NSSDC Master Catalog

Two Line Element Set (TLE):
1 59301U 24056F   24116.21293495 -.00003222  00000-0 -52263-4 0  9997
2 59301  42.9992 172.3287 0001343 253.6942 106.3770 15.48901245  5881
Source of the keplerian elements: AFSPC